Regional Weather Roundup
Issued by NWS Cleveland, OH

Home | Current Version | Previous Version | Text Only | Print | Product List | Glossary On
Versions: 1 2 3 4 5 6 7 8 9 10 11 12 13 14 15 16 17 18 19 20 21 22 23 24 25 26 27 28 29 30 31 32 33 34 35 36 37 38 39 40 41 42 43 44 45 46 47 48 49 50
000
ASUS41 KCLE 202110
RWRCLE
OHIO REGIONAL WEATHER ROUNDUP
NATIONAL WEATHER SERVICE CLEVELAND, OH
500 PM EDT SUN APR 20 2014

NOTE: "FAIR" INDICATES FEW OR NO CLOUDS BELOW 12,000 FEET WITH NO
SIGNIFICANT WEATHER AND/OR OBSTRUCTIONS TO VISIBILITY.

OHZ001>008-015>018-024>027-034-035-043-044-202200-
   NORTHWEST OHIO

CITY           SKY/WX    TMP DP  RH WIND       PRES   REMARKS
DEFIANCE       SUNNY     73  29  19 VRB3      30.16F
FINDLAY        MOSUNNY   74  33  22 S12       30.16F
TOLEDO EXPRESS SUNNY     73  26  17 S10       30.16F
TOLEDO EXEC    SUNNY     70  40  33 E6        30.18F
LIMA           MOSUNNY   74  33  22 MISG      30.17F
$$

OHZ009>014-019>023-028>033-038-089-202200-
   NORTHEAST OHIO

CITY           SKY/WX    TMP DP  RH WIND       PRES   REMARKS
CLE-HOPKINS    MOSUNNY   75  31  19 SE6       30.21F
CLE-LAKEFRONT  MOSUNNY   56  43  61 N9        30.18F
CUY CO. ARPT   MOSUNNY   73  32  21 S9        30.21F
LORAIN-ELYRIA  MOSUNNY   75  32  20 SE10      30.18F
ASHTABULA      MOSUNNY   71  26  18 S9        30.21F
AKRON-CANTON   PTSUNNY   73  28  19 SE8       30.20F
WOOSTER        MOSUNNY   71  29  21 S7        30.20F
MANSFIELD      PTSUNNY   73  35  25 VRB6      30.19F
YOUNGSTOWN     PTSUNNY   71  20  14 VRB5      30.21F
$$

OHZ042-051>053-060>062-070>072-077>081-202200-
  SOUTHWEST OHIO

CITY           SKY/WX    TMP DP  RH WIND       PRES   REMARKS
CINC-COVINGTON MOSUNNY   75  33  21 VRB3      30.16F
CINC-LUNKEN    SUNNY     75  38  26 S6        30.15F
HAMILTON       SUNNY     78  35  21 W7        30.16F
DAYTON         PTSUNNY   72  36  26 SW8       30.18F
WRIGHT-PAT AFB SUNNY     74  37  26 VRB3      30.16F
DAYTON GENERAL SUNNY     74  38  27 MISG      30.16F
WILMINGTON     SUNNY     74  38  27 SW12      30.17F
$$

OHZ036-037-039>041-045>050-054>059-063>069-073>076-082>088-202200-
  CENTRAL AND SOUTHEAST OHIO

CITY           SKY/WX    TMP DP  RH WIND       PRES   REMARKS
COLUMBUS       PTSUNNY   75  36  24 S7        30.17F
OSU AIRPORT    MOSUNNY   74  39  28 S8        30.17F
BOLTON FIELD   SUNNY     73  45  35 S3        30.17F
RICKENBACK AFB MOSUNNY   78  24  13 S9        30.16F
NEWARK         PTSUNNY   74  25  16 MISG      30.17F
MARION         MOSUNNY   71  39  31 S10       30.19F
LANCASTER      MOSUNNY   75  31  19 CALM      30.17F
ZANESVILLE     PTSUNNY   75  28  17 SW8       30.18F
NEW PHILLY     MOSUNNY   73  21  14 SE8       30.19F
$$



USA.gov is the U.S. government's official web portal to all federal, state and local government web resources and services.